Weather History for Woodward, OK

Change the Weather History Date:

Wednesday, February 6, 2013

  Actual Average (KGAG) Record (KGAG)
Temperature  
Mean Temperature 50 °F -  
Max Temperature 64 °F 46 °F 75 °F (2009)
Min Temperature 35 °F 19 °F 3 °F (2014)
Degree Days  
Heating Degree Days 16    
Moisture  
Dew Point 44 °F    
Average Humidity 74    
Maximum Humidity 94    
Minimum Humidity 52    
Precipitation  
Precipitation 0.00 in - - ()
Sea Level Pressure  
Sea Level Pressure 29.89 in    
Wind  
Wind Speed 12 mph (South)    
Max Wind Speed 25 mph    
Max Gust Speed 34 mph    
Visibility 9 miles    
Events Fog , Rain    
Averages and records for this station are not official NWS values.
T = Trace of Precipitation, MM = Missing Value Source: NWS Daily Summary

Daily Weather History Graph

Daily Weather History Graph

Search for Another Location

Airport:

Trip Planner

Search our weather history database for the weather conditions in past years. The results will help you decide how hot, cold, wet, or windy it might be!

Date:

Astronomy

Feb. 06, 2013 Rise Set
Actual Time 7:34 AM CST 6:09 PM CST
Civil Twilight 7:08 AM CST 6:36 PM CST
Nautical Twilight 6:37 AM CST 7:07 PM CST
Astronomical Twilight 6:07 AM CST 7:37 PM CST
Moon 4:17 AM CST (2/6) 2:33 PM CST (2/6)
Length of Visible Light 11h 28m
Length of Day
10h 35m
Waning Crescent, 17% of the Moon is Illuminated
Feb 6
Waning Crescent
Feb 10
New
Feb 17
First Quarter
Feb 25
Full
Mar 4
Last Quarter

Hourly Weather History & Observations

Time (CST) Temp. Windchill Dew Point Humidity Pressure Visibility Wind Dir Wind Speed Gust Speed Precip Events Conditions
12:15 AM 44.6 °F 39.7 °F 28.4 °F 53% 30.02 in 10.0 mi SSE 9.2 mph - N/A   Clear
12:35 AM 42.8 °F 37.5 °F 28.4 °F 57% 30.02 in 10.0 mi SSE 9.2 mph - N/A   Clear
12:55 AM 42.8 °F 37.5 °F 28.4 °F 57% 30.02 in 10.0 mi SSE 9.2 mph - N/A   Clear
1:15 AM 42.8 °F 39.3 °F 30.2 °F 61% 30.01 in 10.0 mi South 5.8 mph - N/A   Clear
1:35 AM 41.0 °F 39.0 °F 32.0 °F 70% 30.01 in 10.0 mi SW 3.5 mph - N/A   Clear
1:55 AM 37.4 °F 32.8 °F 30.2 °F 75% 30.00 in 10.0 mi SW 5.8 mph - N/A   Clear
2:15 AM 35.6 °F 29.9 °F 28.4 °F 75% 30.00 in 10.0 mi SW 6.9 mph - N/A   Clear
2:35 AM 37.4 °F 31.4 °F 32.0 °F 81% 30.00 in 10.0 mi SW 8.1 mph - N/A   Clear
2:55 AM 35.6 °F 28.6 °F 32.0 °F 87% 30.00 in 10.0 mi SSW 9.2 mph - N/A   Clear
3:15 AM 39.2 °F 32.0 °F 35.6 °F 87% 30.00 in 10.0 mi SSW 11.5 mph - N/A   Clear
3:35 AM 41.0 °F 35.2 °F 37.4 °F 87% 30.00 in 1.0 mi SSW 9.2 mph - N/A   Overcast
3:55 AM 42.8 °F 39.3 °F 41.0 °F 93% 30.00 in 0.2 mi SSW 5.8 mph - N/A Rain Light Rain
4:15 AM 42.8 °F 39.3 °F 41.0 °F 93% 30.00 in 0.5 mi SSW 5.8 mph - N/A Fog Fog
4:35 AM 44.6 °F 41.4 °F 42.8 °F 93% 29.99 in 3.0 mi South 5.8 mph - N/A   Overcast
4:55 AM 48.2 °F - 46.4 °F 93% 29.99 in 7.0 mi South 8.1 mph - N/A   Overcast
5:15 AM 48.2 °F - 44.6 °F 87% 29.99 in 10.0 mi South 8.1 mph - N/A   Overcast
5:35 AM 48.2 °F - 44.6 °F 87% 29.98 in 10.0 mi South 9.2 mph - N/A   Overcast
5:55 AM 48.2 °F - 44.6 °F 87% 29.98 in 10.0 mi South 8.1 mph - N/A   Overcast
6:15 AM 48.2 °F - 44.6 °F 87% 29.97 in 10.0 mi South 8.1 mph - N/A   Overcast
6:35 AM 50.0 °F - 44.6 °F 82% 29.98 in 10.0 mi South 10.4 mph - N/A   Overcast
6:55 AM 50.0 °F - 44.6 °F 82% 29.98 in 10.0 mi South 12.7 mph 17.3 mph N/A   Overcast
7:15 AM 50.0 °F - 44.6 °F 82% 29.99 in 10.0 mi South 9.2 mph 17.3 mph N/A   Overcast
7:55 AM 50.0 °F - 44.6 °F 82% 29.99 in 10.0 mi South 9.2 mph - N/A   Overcast
8:15 AM 50.0 °F - 44.6 °F 82% 29.98 in 10.0 mi South 8.1 mph - N/A   Overcast
8:55 AM 51.8 °F - 44.6 °F 76% 29.98 in 10.0 mi South 9.2 mph - N/A   Overcast
9:35 AM 51.8 °F - 44.6 °F 76% 29.97 in 10.0 mi SSW 12.7 mph 17.3 mph N/A   Overcast
9:55 AM 53.6 °F - 44.6 °F 72% 29.97 in 10.0 mi SSW 12.7 mph - N/A   Overcast
10:35 AM 55.4 °F - 46.4 °F 72% 29.96 in 10.0 mi South 20.7 mph - N/A   Overcast
10:55 AM 55.4 °F - 46.4 °F 72% 29.95 in 10.0 mi South 17.3 mph 21.9 mph N/A   Overcast
11:15 AM 55.4 °F - 46.4 °F 72% 29.94 in 10.0 mi South 17.3 mph 26.5 mph N/A   Overcast
11:35 AM 59.0 °F - 46.4 °F 63% 29.94 in 10.0 mi South 19.6 mph 25.3 mph N/A   Overcast
11:55 AM 59.0 °F - 46.4 °F 63% 29.92 in 10.0 mi South 18.4 mph 25.3 mph N/A   Mostly Cloudy
12:15 PM 59.0 °F - 46.4 °F 63% 29.90 in 10.0 mi South 18.4 mph 26.5 mph N/A   Mostly Cloudy
12:35 PM 59.0 °F - 46.4 °F 63% 29.89 in 10.0 mi South 17.3 mph 20.7 mph N/A   Mostly Cloudy
12:55 PM 60.8 °F - 46.4 °F 59% 29.88 in 10.0 mi South 18.4 mph 24.2 mph N/A   Scattered Clouds
1:35 PM 62.6 °F - 46.4 °F 55% 29.86 in 10.0 mi South 18.4 mph - N/A   Unknown
1:55 PM - - - N/A% - - North - - N/A   Unknown
2:15 PM 62.6 °F - 46.4 °F 55% 29.83 in 10.0 mi South 11.5 mph 19.6 mph N/A   Unknown
2:35 PM 62.6 °F - 46.4 °F 55% 29.83 in 10.0 mi SSE 12.7 mph 18.4 mph N/A   Unknown
3:15 PM 64.4 °F - 46.4 °F 52% 29.81 in 10.0 mi South 17.3 mph 23.0 mph N/A   Clear
3:35 PM 64.4 °F - 46.4 °F 52% 29.81 in 10.0 mi South 18.4 mph 23.0 mph N/A   Clear
3:55 PM 64.4 °F - 46.4 °F 52% 29.80 in 10.0 mi SSE 15.0 mph 24.2 mph N/A   Clear
4:15 PM 64.4 °F - 46.4 °F 52% 29.79 in 10.0 mi SSE 15.0 mph - N/A   Clear
4:55 PM 62.6 °F - 46.4 °F 55% 29.79 in 10.0 mi SSE 15.0 mph 21.9 mph N/A   Clear
5:15 PM 62.6 °F - 46.4 °F 55% 29.79 in 10.0 mi SSE 12.7 mph 18.4 mph N/A   Clear
5:35 PM 62.6 °F - 46.4 °F 55% 29.78 in 10.0 mi SE 16.1 mph - N/A   Clear
5:55 PM 60.8 °F - 46.4 °F 59% 29.78 in 10.0 mi SSE 10.4 mph - N/A   Clear
6:15 PM 59.0 °F - 46.4 °F 63% 29.78 in 10.0 mi SE 12.7 mph - N/A   Clear
6:35 PM 59.0 °F - 46.4 °F 63% 29.77 in 10.0 mi SE 13.8 mph - N/A   Clear
6:55 PM 59.0 °F - 46.4 °F 63% 29.77 in 10.0 mi SE 15.0 mph - N/A   Clear
7:15 PM 59.0 °F - 46.4 °F 63% 29.77 in 10.0 mi SSE 16.1 mph - N/A   Clear
7:35 PM 59.0 °F - 46.4 °F 63% 29.77 in 10.0 mi SSE 17.3 mph 21.9 mph N/A   Clear
7:55 PM 59.0 °F - 48.2 °F 67% 29.77 in 10.0 mi SE 16.1 mph 21.9 mph N/A   Clear
8:15 PM 57.2 °F - 51.8 °F 82% 29.77 in 10.0 mi SSE 18.4 mph 23.0 mph N/A   Clear
8:35 PM 57.2 °F - 51.8 °F 82% 29.77 in 10.0 mi SSE 19.6 mph 25.3 mph N/A   Clear
8:55 PM 57.2 °F - 53.6 °F 88% 29.77 in 10.0 mi SSE 18.4 mph 25.3 mph N/A   Clear
9:15 PM 57.2 °F - 53.6 °F 88% 29.77 in 7.0 mi SSE 21.9 mph 27.6 mph N/A   Clear
9:35 PM 55.4 °F - 53.6 °F 94% 29.78 in 7.0 mi SSE 20.7 mph - N/A   Clear
9:55 PM 55.4 °F - 53.6 °F 94% 29.78 in 5.0 mi SSE 20.7 mph 26.5 mph N/A   Scattered Clouds
10:15 PM 55.4 °F - 53.6 °F 94% 29.78 in 5.0 mi SSE 20.7 mph 27.6 mph N/A   Mostly Cloudy
10:35 PM 55.4 °F - 53.6 °F 94% 29.77 in 5.0 mi SSE 24.2 mph 33.4 mph N/A   Overcast
10:55 PM 55.4 °F - 53.6 °F 94% 29.77 in 7.0 mi SSE 24.2 mph 34.5 mph N/A   Mostly Cloudy
11:15 PM 55.4 °F - 53.6 °F 94% 29.77 in 7.0 mi SSE 25.3 mph 34.5 mph N/A   Mostly Cloudy
11:35 PM 55.4 °F - 51.8 °F 88% 29.77 in 7.0 mi SSE 23.0 mph 34.5 mph N/A   Scattered Clouds
11:55 PM 55.4 °F - 51.8 °F 88% 29.77 in 10.0 mi SSE 24.2 mph 33.4 mph N/A   Scattered Clouds